Location: Fort Wayne
(41.1310°N, 85.1290°W)
Time: 18:16:52
(UTC-04:00)

Gbstr 26 Del rocket - Visible Passes

Search period start: 17 October 2017 00:00
Search period end: 27 October 2017 00:00
Orbit: 493 x 1265 km, 51.8° (Epoch: 16 October)

Date Brightness Start Highest point End Pass type
(mag) Time Alt. Az. Time Alt. Az. Time Alt. Az.
17 Oct 4.5 19:58:19 10° NW 20:02:51 33° NNE 20:06:21 18° ENE visible
17 Oct 4.3 21:44:52 10° NW 21:48:55 54° NW 21:48:55 54° NW visible
18 Oct 4.3 19:53:57 10° NW 19:58:33 37° NNE 20:02:17 18° E visible
18 Oct 4.2 21:40:30 10° WNW 21:44:51 58° WNW 21:44:51 58° WNW visible
19 Oct 4.2 19:49:34 10° NW 19:54:15 41° NNE 19:58:17 18° E visible
19 Oct 4.2 21:36:09 10° WNW 21:40:52 58° WSW 21:40:52 58° WSW visible
20 Oct 4.0 19:45:10 10° NW 19:49:55 46° NNE 19:54:24 16° E visible
20 Oct 4.4 21:31:50 10° WNW 21:37:00 51° SW 21:37:00 51° SW visible
21 Oct 3.8 19:40:46 10° NW 19:45:35 54° NNE 19:50:40 14° ESE visible
21 Oct 4.7 21:27:34 10° WNW 21:32:40 41° SW 21:33:16 40° SSW visible
22 Oct 3.6 19:36:22 10° NW 19:41:13 63° NNE 19:47:07 11° ESE visible
22 Oct 5.1 21:23:22 10° WNW 21:28:12 33° SW 21:29:43 29° SSW visible
23 Oct 3.5 19:31:58 10° NW 19:36:49 75° NE 19:42:54 10° ESE visible
23 Oct 5.5 21:19:15 10° WNW 21:23:44 26° SW 21:26:25 20° SSW visible
24 Oct 3.5 19:27:35 10° NW 19:32:25 90° N 19:38:30 10° SE visible
24 Oct 5.8 21:15:15 10° W 21:19:16 21° SW 21:23:25 11° S visible
25 Oct 3.7 19:23:13 10° WNW 19:28:01 75° SW 19:34:01 10° SE visible
25 Oct 6.2 21:11:29 10° W 21:14:46 16° SW 21:18:24 10° SSW visible
26 Oct 4.1 19:18:52 10° WNW 19:23:35 60° SW 19:29:28 10° SE visible
26 Oct 6.5 21:08:12 10° WSW 21:10:15 12° SW 21:12:26 10° SSW visible
